﻿_id,UTC_DateTime,UTC_Time,PG,PG_mean,unit,site,lat,lon,alt
1,2014-02-18T00:00:00,00:00:00,,,"","",,,
2,2014-02-18T01:00:00,01:00:00,,,"","",,,
3,2014-02-18T02:00:00,02:00:00,,,"","",,,
4,2014-02-18T03:00:00,03:00:00,,,"","",,,
5,2014-02-18T04:00:00,04:00:00,,,"","",,,
6,2014-02-18T05:00:00,05:00:00,,,"","",,,
7,2014-02-18T06:00:00,06:00:00,,,"","",,,
8,2014-02-18T07:00:00,07:00:00,,,"","",,,
9,2014-02-18T08:00:00,08:00:00,,,"","",,,
10,2014-02-18T09:00:00,09:00:00,,,"","",,,
11,2014-02-18T10:00:00,10:00:00,,,"","",,,
12,2014-02-18T11:00:00,11:00:00,,,"","",,,
13,2014-02-18T12:00:00,12:00:00,,,"","",,,
14,2014-02-18T13:00:00,13:00:00,,,"","",,,
15,2014-02-18T14:00:00,14:00:00,,,"","",,,
16,2014-02-18T15:00:00,15:00:00,,,"","",,,
17,2014-02-18T16:00:00,16:00:00,,,"","",,,
18,2014-02-18T17:00:00,17:00:00,,,"","",,,
19,2014-02-18T18:00:00,18:00:00,,,"","",,,
20,2014-02-18T19:00:00,19:00:00,,,"","",,,
21,2014-02-18T20:00:00,20:00:00,,,"","",,,
22,2014-02-18T21:00:00,21:00:00,,,"","",,,
23,2014-02-18T22:00:00,22:00:00,,,"","",,,
24,2014-02-18T23:00:00,23:00:00,,,"","",,,
25,2014-02-19T00:00:00,00:00:00,58,74,V/m,CAS,-31.798,290.705,2550
26,2014-02-19T01:00:00,01:00:00,61,66,V/m,CAS,-31.798,290.705,2550
27,2014-02-19T02:00:00,02:00:00,60,58,V/m,CAS,-31.798,290.705,2550
28,2014-02-19T03:00:00,03:00:00,63,56,V/m,CAS,-31.798,290.705,2550
29,2014-02-19T04:00:00,04:00:00,64,54,V/m,CAS,-31.798,290.705,2550
30,2014-02-19T05:00:00,05:00:00,64,53,V/m,CAS,-31.798,290.705,2550
31,2014-02-19T06:00:00,06:00:00,72,53,V/m,CAS,-31.798,290.705,2550
32,2014-02-19T07:00:00,07:00:00,76,53,V/m,CAS,-31.798,290.705,2550
33,2014-02-19T08:00:00,08:00:00,68,53,V/m,CAS,-31.798,290.705,2550
34,2014-02-19T09:00:00,09:00:00,56,53,V/m,CAS,-31.798,290.705,2550
35,2014-02-19T10:00:00,10:00:00,54,59,V/m,CAS,-31.798,290.705,2550
36,2014-02-19T11:00:00,11:00:00,74,81,V/m,CAS,-31.798,290.705,2550
37,2014-02-19T12:00:00,12:00:00,86,95,V/m,CAS,-31.798,290.705,2550
38,2014-02-19T13:00:00,13:00:00,103,101,V/m,CAS,-31.798,290.705,2550
39,2014-02-19T14:00:00,14:00:00,107,105,V/m,CAS,-31.798,290.705,2550
40,2014-02-19T15:00:00,15:00:00,104,108,V/m,CAS,-31.798,290.705,2550
41,2014-02-19T16:00:00,16:00:00,92,104,V/m,CAS,-31.798,290.705,2550
42,2014-02-19T17:00:00,17:00:00,90,104,V/m,CAS,-31.798,290.705,2550
43,2014-02-19T18:00:00,18:00:00,91,107,V/m,CAS,-31.798,290.705,2550
44,2014-02-19T19:00:00,19:00:00,88,103,V/m,CAS,-31.798,290.705,2550
45,2014-02-19T20:00:00,20:00:00,81,99,V/m,CAS,-31.798,290.705,2550
46,2014-02-19T21:00:00,21:00:00,81,96,V/m,CAS,-31.798,290.705,2550
47,2014-02-19T22:00:00,22:00:00,73,100,V/m,CAS,-31.798,290.705,2550
48,2014-02-19T23:00:00,23:00:00,86,89,V/m,CAS,-31.798,290.705,2550
49,2014-02-20T00:00:00,00:00:00,71,74,V/m,CAS,-31.798,290.705,2550
50,2014-02-20T01:00:00,01:00:00,63,66,V/m,CAS,-31.798,290.705,2550
51,2014-02-20T02:00:00,02:00:00,56,58,V/m,CAS,-31.798,290.705,2550
52,2014-02-20T03:00:00,03:00:00,37,56,V/m,CAS,-31.798,290.705,2550
53,2014-02-20T04:00:00,04:00:00,49,54,V/m,CAS,-31.798,290.705,2550
54,2014-02-20T05:00:00,05:00:00,47,53,V/m,CAS,-31.798,290.705,2550
55,2014-02-20T06:00:00,06:00:00,45,53,V/m,CAS,-31.798,290.705,2550
56,2014-02-20T07:00:00,07:00:00,41,53,V/m,CAS,-31.798,290.705,2550
57,2014-02-20T08:00:00,08:00:00,43,53,V/m,CAS,-31.798,290.705,2550
58,2014-02-20T09:00:00,09:00:00,54,53,V/m,CAS,-31.798,290.705,2550
59,2014-02-20T10:00:00,10:00:00,60,59,V/m,CAS,-31.798,290.705,2550
60,2014-02-20T11:00:00,11:00:00,82,81,V/m,CAS,-31.798,290.705,2550
61,2014-02-20T12:00:00,12:00:00,93,95,V/m,CAS,-31.798,290.705,2550
62,2014-02-20T13:00:00,13:00:00,90,101,V/m,CAS,-31.798,290.705,2550
63,2014-02-20T14:00:00,14:00:00,104,105,V/m,CAS,-31.798,290.705,2550
64,2014-02-20T15:00:00,15:00:00,108,108,V/m,CAS,-31.798,290.705,2550
65,2014-02-20T16:00:00,16:00:00,100,104,V/m,CAS,-31.798,290.705,2550
66,2014-02-20T17:00:00,17:00:00,116,104,V/m,CAS,-31.798,290.705,2550
67,2014-02-20T18:00:00,18:00:00,112,107,V/m,CAS,-31.798,290.705,2550
68,2014-02-20T19:00:00,19:00:00,114,103,V/m,CAS,-31.798,290.705,2550
69,2014-02-20T20:00:00,20:00:00,102,99,V/m,CAS,-31.798,290.705,2550
70,2014-02-20T21:00:00,21:00:00,92,96,V/m,CAS,-31.798,290.705,2550
71,2014-02-20T22:00:00,22:00:00,116,100,V/m,CAS,-31.798,290.705,2550
72,2014-02-20T23:00:00,23:00:00,97,89,V/m,CAS,-31.798,290.705,2550
73,2014-02-21T00:00:00,00:00:00,62,74,V/m,CAS,-31.798,290.705,2550
74,2014-02-21T01:00:00,01:00:00,62,66,V/m,CAS,-31.798,290.705,2550
75,2014-02-21T02:00:00,02:00:00,50,58,V/m,CAS,-31.798,290.705,2550
76,2014-02-21T03:00:00,03:00:00,48,56,V/m,CAS,-31.798,290.705,2550
77,2014-02-21T04:00:00,04:00:00,44,54,V/m,CAS,-31.798,290.705,2550
78,2014-02-21T05:00:00,05:00:00,42,53,V/m,CAS,-31.798,290.705,2550
79,2014-02-21T06:00:00,06:00:00,49,53,V/m,CAS,-31.798,290.705,2550
80,2014-02-21T07:00:00,07:00:00,53,53,V/m,CAS,-31.798,290.705,2550
81,2014-02-21T08:00:00,08:00:00,52,53,V/m,CAS,-31.798,290.705,2550
82,2014-02-21T09:00:00,09:00:00,51,53,V/m,CAS,-31.798,290.705,2550
83,2014-02-21T10:00:00,10:00:00,54,59,V/m,CAS,-31.798,290.705,2550
84,2014-02-21T11:00:00,11:00:00,74,81,V/m,CAS,-31.798,290.705,2550
85,2014-02-21T12:00:00,12:00:00,109,95,V/m,CAS,-31.798,290.705,2550
86,2014-02-21T13:00:00,13:00:00,100,101,V/m,CAS,-31.798,290.705,2550
87,2014-02-21T14:00:00,14:00:00,102,105,V/m,CAS,-31.798,290.705,2550
88,2014-02-21T15:00:00,15:00:00,92,108,V/m,CAS,-31.798,290.705,2550
89,2014-02-21T16:00:00,16:00:00,100,104,V/m,CAS,-31.798,290.705,2550
90,2014-02-21T17:00:00,17:00:00,102,104,V/m,CAS,-31.798,290.705,2550
91,2014-02-21T18:00:00,18:00:00,97,107,V/m,CAS,-31.798,290.705,2550
92,2014-02-21T19:00:00,19:00:00,91,103,V/m,CAS,-31.798,290.705,2550
93,2014-02-21T20:00:00,20:00:00,89,99,V/m,CAS,-31.798,290.705,2550
94,2014-02-21T21:00:00,21:00:00,89,96,V/m,CAS,-31.798,290.705,2550
95,2014-02-21T22:00:00,22:00:00,105,100,V/m,CAS,-31.798,290.705,2550
96,2014-02-21T23:00:00,23:00:00,83,89,V/m,CAS,-31.798,290.705,2550
97,2014-02-22T00:00:00,00:00:00,60,74,V/m,CAS,-31.798,290.705,2550
98,2014-02-22T01:00:00,01:00:00,41,66,V/m,CAS,-31.798,290.705,2550
99,2014-02-22T02:00:00,02:00:00,36,58,V/m,CAS,-31.798,290.705,2550
100,2014-02-22T03:00:00,03:00:00,31,56,V/m,CAS,-31.798,290.705,2550
101,2014-02-22T04:00:00,04:00:00,32,54,V/m,CAS,-31.798,290.705,2550
102,2014-02-22T05:00:00,05:00:00,33,53,V/m,CAS,-31.798,290.705,2550
103,2014-02-22T06:00:00,06:00:00,35,53,V/m,CAS,-31.798,290.705,2550
104,2014-02-22T07:00:00,07:00:00,42,53,V/m,CAS,-31.798,290.705,2550
105,2014-02-22T08:00:00,08:00:00,43,53,V/m,CAS,-31.798,290.705,2550
106,2014-02-22T09:00:00,09:00:00,51,53,V/m,CAS,-31.798,290.705,2550
107,2014-02-22T10:00:00,10:00:00,65,59,V/m,CAS,-31.798,290.705,2550
108,2014-02-22T11:00:00,11:00:00,95,81,V/m,CAS,-31.798,290.705,2550
109,2014-02-22T12:00:00,12:00:00,108,95,V/m,CAS,-31.798,290.705,2550
110,2014-02-22T13:00:00,13:00:00,104,101,V/m,CAS,-31.798,290.705,2550
111,2014-02-22T14:00:00,14:00:00,111,105,V/m,CAS,-31.798,290.705,2550
112,2014-02-22T15:00:00,15:00:00,107,108,V/m,CAS,-31.798,290.705,2550
113,2014-02-22T16:00:00,16:00:00,115,104,V/m,CAS,-31.798,290.705,2550
114,2014-02-22T17:00:00,17:00:00,110,104,V/m,CAS,-31.798,290.705,2550
115,2014-02-22T18:00:00,18:00:00,93,107,V/m,CAS,-31.798,290.705,2550
116,2014-02-22T19:00:00,19:00:00,98,103,V/m,CAS,-31.798,290.705,2550
117,2014-02-22T20:00:00,20:00:00,88,99,V/m,CAS,-31.798,290.705,2550
118,2014-02-22T21:00:00,21:00:00,84,96,V/m,CAS,-31.798,290.705,2550
119,2014-02-22T22:00:00,22:00:00,86,100,V/m,CAS,-31.798,290.705,2550
120,2014-02-22T23:00:00,23:00:00,77,89,V/m,CAS,-31.798,290.705,2550
